Tracking 28126 objects as of 2-Oct-2023
HD Live streaming from Space Station
objects crossing your sky now

STARLINK-3741

Track STARLINK-3741 now!
10-day predictions
STARLINK-3741 is classified as:


NORAD ID: 52619
Int'l Code: 2022-052X
Perigee: 545.7 km
Apogee: 548.1 km
Inclination: 53.2 °
Period: 95.4 minutes
Semi major axis: 6917 km
RCS: Unknown
Launch date: May 14, 2022
Source: United States (US)
Launch site: AIR FORCE EASTERN TEST RANGE (AFETR)
Your satellite tracking list
Your tracking list is empty




NASA's NSSDC Master Catalog

Two Line Element Set (TLE):
1 52619U 22052X   23274.40855725 -.00000681  00000-0 -24703-4 0  9995
2 52619  53.2167 305.7404 0001708  93.5564 266.5624 15.08843279 76584
Source of the keplerian elements: AFSPC